Fort Campbell, KY

3:12 AM CDT on July 23, 2017 (GMT -0500)
Campbell Army Air Field

Weather History for KHOP - June, 2013

Change the Weather History Date:

Wednesday, June 12, 2013

  Actual Average Record
Temperature  
Mean Temperature 82 °F -  
Max Temperature 91 °F 82 °F 96 °F (1998)
Min Temperature 75 °F 64 °F 54 °F (2007)
Cooling Degree Days 18    
Growing Degree Days 32 (Base 50)    
Moisture  
Dew Point 76 °F    
Average Humidity 77    
Maximum Humidity 100    
Minimum Humidity 58    
Precipitation  
Precipitation 0.00 in - - ()
Sea Level Pressure  
Sea Level Pressure 29.95 in    
Wind  
Wind Speed 11 mph (SW)    
Max Wind Speed 18 mph    
Max Gust Speed 24 mph    
Visibility 10 miles    
Events      
Averages and records for this station are not official NWS values.
T = Trace of Precipitation, MM = Missing Value Source: NWS Daily Summary

Daily Weather History Graph

Daily Weather History Graph

Search for Another Location

Airport or City:

Trip Planner

Search our weather history database for the weather conditions in past years. The results will help you decide how hot, cold, wet, or windy it might be!

Date:

Astronomy

Jun. 12, 2013 Rise Set
Actual Time 5:30 AM CDT 8:09 PM CDT
Civil Twilight 5:00 AM CDT 8:39 PM CDT
Nautical Twilight 4:22 AM CDT 9:17 PM CDT
Astronomical Twilight 3:39 AM CDT 10:00 PM CDT
Moon 9:05 AM CDT (6/12) 10:50 PM CDT (6/12)
Length of Visible Light 15h 39m
Length of Day
14h 38m
Waxing Crescent, 14% of the Moon is Illuminated
Jun 12
Waxing Crescent
Jun 16
First Quarter
Jun 23
Full
Jun 29
Last Quarter
Jul 8
New

Hourly Weather History & Observations

Time (CDT) Temp. Heat Index Dew Point Humidity Pressure Visibility Wind Dir Wind Speed Gust Speed Precip Events Conditions
12:58 AM 77.5 °F - 77.5 °F 100% 29.95 in 10.0 mi SW 9.2 mph - N/A   Scattered Clouds
1:58 AM 78.4 °F - 78.1 °F 99% 29.95 in 10.0 mi SW 10.4 mph - N/A   Mostly Cloudy
2:58 AM 78.1 °F - 77.5 °F 98% 29.94 in 10.0 mi SW 9.2 mph - N/A   Mostly Cloudy
3:58 AM 77.9 °F - 75.4 °F 92% 29.95 in 10.0 mi SW 8.1 mph - N/A   Mostly Cloudy
4:58 AM 75.9 °F - 75.6 °F 99% 29.96 in 10.0 mi SW 5.8 mph - N/A   Clear
5:58 AM 75.7 °F - 75.7 °F 100% 29.98 in 10.0 mi SW 6.9 mph - N/A   Mostly Cloudy
6:58 AM 78.4 °F - 76.3 °F 93% 30.00 in 10.0 mi WSW 8.1 mph - N/A   Clear
7:58 AM 80.4 °F 86.1 °F 75.9 °F 86% 30.02 in 10.0 mi WSW 12.7 mph - N/A   Partly Cloudy
8:58 AM 82.9 °F 90.8 °F 75.7 °F 79% 30.04 in 10.0 mi West 11.5 mph - N/A   Clear
9:58 AM 86.2 °F 96.0 °F 75.9 °F 71% 30.04 in 10.0 mi WSW 15.0 mph - N/A   Partly Cloudy
10:56 AM 86.0 °F 96.9 °F 77.0 °F 74% 30.05 in 10.0 mi WSW 11.5 mph - N/A   Scattered Clouds
11:58 AM 88.5 °F 99.4 °F 75.7 °F 66% 30.02 in 10.0 mi WSW 13.8 mph - N/A   Clear
12:58 PM 89.6 °F 101.6 °F 76.6 °F 65% 30.00 in 10.0 mi West 13.8 mph 19.6 mph N/A   Partly Cloudy
1:58 PM 90.3 °F 101.6 °F 75.9 °F 62% 29.98 in 10.0 mi SW 10.4 mph - N/A   Partly Cloudy
2:58 PM 90.7 °F 100.7 °F 74.7 °F 59% 29.94 in 10.0 mi SW 15.0 mph 24.2 mph N/A   Partly Cloudy
3:58 PM 90.9 °F 100.6 °F 74.5 °F 58% 29.92 in 10.0 mi SW 12.7 mph 20.7 mph N/A   Partly Cloudy
4:58 PM 90.7 °F 101.9 °F 75.4 °F 61% 29.90 in 10.0 mi SSW 18.4 mph - N/A   Clear
5:58 PM 90.0 °F 100.2 °F 75.0 °F 61% 29.87 in 10.0 mi SSW 15.0 mph - N/A   Clear
6:58 PM 88.5 °F 97.8 °F 74.5 °F 63% 29.87 in 10.0 mi SSW 15.0 mph - N/A   Clear
7:58 PM 86.0 °F 93.8 °F 73.9 °F 67% 29.88 in 10.0 mi SSW 12.7 mph - N/A   Clear
8:58 PM 84.0 °F 91.9 °F 75.0 °F 74% 29.87 in 10.0 mi SSW 12.7 mph - N/A   Clear
9:58 PM 83.1 °F 89.8 °F 74.1 °F 74% 29.87 in 10.0 mi SSW 12.7 mph - N/A   Clear
10:58 PM 82.4 °F 89.0 °F 74.7 °F 77% 29.86 in 10.0 mi SSW 17.3 mph - N/A   Clear
11:58 PM 81.7 °F 87.8 °F 74.5 °F 79% 29.86 in 10.0 mi SW 16.1 mph - N/A   Clear